Regional Weather Roundup
Issued by NWS

Home | Current Version | Previous Version | Graphics & Text | Print | Product List | Glossary On
Versions: 1 2 3 4 5 6 7 8 9 10 11 12 13 14 15 16 17 18 19 20 21 22 23 24 25 26 27 28 29 30 31 32 33 34 35 36 37 38 39 40 41 42 43 44 45 46 47 48 49 50
000
ASUS43 KLSX 192357
RWRMO

WEATHER SUMMARY FOR MISSOURI
NATIONAL WEATHER SERVICE SPRINGFIELD MO
600 PM CST MON FEB 19 2018

NOTE: "FAIR" INDICATES FEW OR NO CLOUDS BELOW 12,000 FEET WITH NO
       SIGNIFICANT WEATHER AND/OR OBSTRUCTIONS TO VISIBILITY.
       CURRENT SKY AND/OR WEATHER CONDITIONS ARE NOT AVAILABLE FOR
       CHILLICOTHE AND FARMINGTON.

MOZ001>031-035>038-043-044-053-054-200100-
...NORTHERN AND WESTERN MISSOURI...

CITY           SKY/WX    TMP DP  RH WIND       PRES   REMARKS
KANSAS CTY INT CLOUDY    31  28  89 NW10      29.82R WCI  22
6HR MIN TEMP:  31; 6HR MAX TEMP:  35; 6HR PCP: TRACE;

LEE`S SUMMIT   CLOUDY    34  34 100 NW8       29.81R FOG     WCI  27
6HR MIN TEMP:  34; 6HR MAX TEMP:  55; 6HR PCP:  0.01;

ST JOSEPH      CLOUDY    29  28  96 NW9       29.85R FOG     WCI  20
6HR MIN TEMP:  29; 6HR MAX TEMP:  32;

CHILLICOTHE      N/A     37  34  89 NW6       29.81R
6HR MIN TEMP:  37; 6HR MAX TEMP:  61; 6HR PCP:  0.01;

KIRKSVILLE     LGT RAIN  48  48 100 W9        29.76R FOG

$$
MOZ066>068-077>081-088>096-101>105-200100-
...SOUTHWEST MISSOURI...

CITY           SKY/WX    TMP DP  RH WIND       PRES   REMARKS
SPRINGFIELD    CLOUDY    66  59  78 S20G32    29.80S
6HR MIN TEMP:  63; 6HR MAX TEMP:  67; 6HR PCP:  0.02;

JOPLIN         CLOUDY    64  63  96 S24G35    29.75S
6HR MIN TEMP:  64; 6HR MAX TEMP:  66; 6HR PCP:  0.12;

BRANSON        CLOUDY    66  57  72 SE12G17   29.87F

$$
MOZ032>034-039>042-045>050-055>058-069>072-200100-
...CENTRAL MISSOURI...

CITY           SKY/WX    TMP DP  RH WIND       PRES   REMARKS
COLUMBIA       NOT AVBL
JEFFERSON CITY CLOUDY    68  58  70 S16G23    29.78R
6HR MIN TEMP:  61; 6HR MAX TEMP:  69; 6HR PCP:  0.21;

ROLLA          CLOUDY    65  57  75 S23G30    29.83S
6HR MIN TEMP:  58; 6HR MAX TEMP:  65; 6HR PCP:  0.16;

SEDALIA        RAIN      48  48 100 NW15      29.77R FOG
6HR MIN TEMP:  48; 6HR MAX TEMP:  65; 6HR PCP:  0.39;

WARRENSBURG    CLOUDY    37  36  93 NW8       29.78R

$$
MOZ051-052-059>065-200100-
...EAST CENTRAL MISSOURI...

CITY           SKY/WX    TMP DP  RH WIND       PRES   REMARKS
ST LOUIS INTL  CLOUDY    65  58  78 S10       29.85F
6HR MIN TEMP:  60; 6HR MAX TEMP:  65; 6HR PCP:  0.56;


$$
MOZ072>076-082>087-097>100-106>115-200100-
...SOUTH CENTRAL AND SOUTHEAST MISSOURI...

CITY           SKY/WX    TMP DP  RH WIND       PRES   REMARKS
CAPE GIRARDEAU CLOUDY    69  61  75 S16       29.98S
6HR MIN TEMP:  65; 6HR MAX TEMP:  70;

POPLAR BLUFF   FAIR      67  60  78 S7        29.97S
6HR MIN TEMP:  67; 6HR MAX TEMP:  71;

WEST PLAINS    CLOUDY    67  55  65 S13       29.93R
6HR MIN TEMP:  62; 6HR MAX TEMP:  68; 6HR PCP:  0.01;


$$



USA.gov is the U.S. government's official web portal to all federal, state and local government web resources and services.